Namur - Hors Challenge

Le jogging de la ville de Namur (5.80 km)

dimanche 10 septembre 2017
Le Classement original se trouve sur : http://www.chronorace.be
 
LE JOGGING DE LA VILLE DE NAMUR
DISTANCE : 5.80 km
dimanche 10 septembre 2017
 
Place Dos NOM Catégorie Pl/cat temps temps/km Vitesse
1 5115 MAHIA SEBASTIEN SH 1 0:19:44 03:24 17.64
2 5080 LEFÈVRE AURÉLIEN SH 2 0:19:44 03:24 17.64
3 5577 CAPELLE CHRISTIAN V2 1 0:19:58 03:27 17.43
4 5116 WEITKUNAT BAPTISTE PAUL SH 3 0:20:34 03:33 16.92
5 5543 LEONET MATHIEU SH 4 0:20:38 03:33 16.87
6 5557 LESIRE MIGUEL SH 5 0:21:25 03:42 16.25
7 5238 MHAMED HAMICH SH 6 0:21:37 03:44 16.10
8 5258 LEBRUN LOUIS JH 1 0:22:03 03:48 15.78
9 5247 EXELMANS YVES V2 2 0:22:04 03:48 15.77
10 5212 HOUTART NICOLAS JEAN JH 2 0:22:13 03:50 15.66
11 5218 EVRARD ANTHONY SH 7 0:22:16 03:50 15.63
12 5576 CAPELLE CORENTIN SH 8 0:22:22 03:51 15.56
13 5536 TROUSSART CÉDRIC SH 9 0:22:30 03:53 15.47
14 5050 RENSON RALPH SH 10 0:22:32 03:53 15.44
15 5491 BOUCHONVILLE TAE BOK SH 11 0:22:41 03:55 15.34
16 5099 SOLBREUX YVES V2 3 0:22:42 03:55 15.33
17 5098 SOLBREUX THIBAUD JH 3 0:22:59 03:58 15.14
18 5595 DE KEMMETER JEAN-FRANÇOIS SH 12 0:23:03 03:58 15.10
19 5206 DE NOBLE AYMERIC SH 13 0:23:09 03:59 15.03
20 5222 KODRUN LOUIS FRANZ JH 4 0:23:11 04:00 15.01
21 5551 FIEVEZ PIERRE V3 1 0:23:11 04:00 15.01
22 5221 XXX xxx   0:23:26 04:02 14.85
23 5070 SERAFIN ADRIEN SH 14 0:23:32 04:03 14.79
24 5538 GILBERT WILLIAM JH 5 0:23:36 04:04 14.75
25 5230 CAUDRON ALEXIS JH 6 0:23:39 04:05 14.71
26 5535 TROUSSART NOÉMIE JF 1 0:23:46 04:06 14.64
27 5051 VAN NUFFEL GUNTHER V1 1 0:23:50 04:07 14.60
28 5469 LOMBET DAVID SH 15 0:23:52 04:07 14.58
29 5083 MERVEILLE MARC V2 4 0:23:53 04:07 14.57
30 5204 BAURAING DAVID MARCEL SH 16 0:23:54 04:07 14.56
31 5216 POLET JEAN LOUIS SH 17 0:23:58 04:08 14.52
32 5242 ROCHETTE BERTRAND ALAIN SH 18 0:24:19 04:12 14.31
33 5187 VANDERPERRE SATHISH SH 19 0:24:20 04:12 14.30
34 5176 DOYE NOAM JH 7 0:24:27 04:13 14.23
35 5184 HENRY MAXIME JH 8 0:24:38 04:15 14.13
36 5243 GERMAIN LUDOVIC DANIEL SH 20 0:24:40 04:15 14.11
37 5371 HOUGARDY BENOIT V2 5 0:24:50 04:17 14.01
38 5057 TIERENS NOÉ JH 9 0:24:50 04:17 14.01
39 5540 MERCIER AMANDINE JF 2 0:25:01 04:19 13.91
40 5589 CHAUSSIER OCÉANE SD 1 0:25:04 04:19 13.88
41 5012 DONNER ALEXANDRE SH 21 0:25:06 04:20 13.86
42 5237 HOUGARDY OLIVIER xxx   0:25:17 04:22 13.76
43 5182 GOSSIAUX SOLINE MICHÈLE SD 2 0:25:17 04:22 13.76
44 5495 RAPPE DOMINIQUE V2 6 0:25:32 04:24 13.63
45 5523 GENGLER BAPTISTE JH 10 0:25:32 04:24 13.63
46 5170 MOREAU HUGUES SH 22 0:25:33 04:24 13.62
47 5053 MONIOTTE GABRIEL V1 2 0:25:41 04:26 13.55
48 5198 GERMY THEO JH 11 0:25:42 04:26 13.54
49 5244 VAN DEN HOVE PAUL JH 12 0:25:49 04:27 13.48
50 5059 CHARPENTIER GRÉGORY SH 23 0:25:50 04:27 13.47
51 5033 BERNARD KILLIAN JH 13 0:26:00 04:29 13.38
52 5158 POT GÉRARD ANDRÉ V2 7 0:26:05 04:30 13.34
53 5072 DUQUENNE PHILIPPE V1 3 0:26:06 04:30 13.33
54 5510 DERÈSE EDDY V1 4 0:26:08 04:30 13.32
55 5149 PAPROCKI STÉPHANE SH 24 0:26:11 04:31 13.29
56 5546 LE GAL BENOIT V1 5 0:26:17 04:32 13.24
57 5515 BRUNO SACHA JH 14 0:26:21 04:33 13.21
58 5069 GROVONIUS GWENAELLE SD 3 0:26:34 04:35 13.10
59 5032 SIMONS ALEXANE SD 4 0:26:34 04:35 13.10
60 5583 FRIPPIAT BAPTISTE JH 15 0:26:53 04:38 12.94
61 5156 DI PRIMO MARCO SH 25 0:27:01 04:39 12.88
62 5599 LEROY CEDRIC JH 16 0:27:03 04:40 12.87
63 5042 HOUGARDY ADAM JH 17 0:27:05 04:40 12.85
64 5148 LAMBERT GUILLAUME SH 26 0:27:09 04:41 12.82
65 5223 BARBIER ANNE SD 5 0:27:19 04:43 12.74
66 5151 DESENFANS OLIVIER SYLVAIN SH 27 0:27:21 04:43 12.72
67 5213 GIARDINA GIZZIANA SD 6 0:27:22 04:43 12.72
68 5097 KAMINSKA IRMINA SD 7 0:27:22 04:43 12.72
69 5573 MERCENIER DIDIER V1 6 0:27:25 04:44 12.69
70 5528 VERNIMMEN THOMAS JH 18 0:27:27 04:44 12.68
71 5525 PARMENTIER LUNA JF 3 0:27:29 04:44 12.66
72 5506 RAZA JACK SH 28 0:28:08 04:51 12.37
73 5224 DEWINTER ANNE SD 8 0:28:11 04:52 12.35
74 5500 DUPONT PIERRE-LOUP JH 19 0:28:13 04:52 12.33
75 5501 DUPONT JEAN-FRANCOIS V1 7 0:28:19 04:53 12.29
76 5527 VERNIMMEN DENIS V1 8 0:28:25 04:54 12.25
77 5084 MERVEILLE LAURENT JH 20 0:28:26 04:54 12.24
78 5177 VRANCKEN MARIO SH 29 0:28:30 04:55 12.21
79 5225 DEWINTER JEAN-MARIE V3 2 0:28:47 04:58 12.09
80 5043 SCHEYVEN GENEVIEVE A1 1 0:28:53 04:59 12.05
81 5483 GENGLER GUILLAUME JH 21 0:28:57 04:59 12.02
82 5064 MLECZKO HUGO JH 22 0:29:00 05:00 12.00
83 5041 HOUGARDY RÉMI JH 23 0:29:02 05:00 11.99
84 5520 LEROY CLEMENT JH 24 0:29:04 05:01 11.97
85 5199 BELLET NICOLAS VINCENT JH 25 0:29:06 05:01 11.96
86 5095 ANSIAUX CHRISTOPHE SH 30 0:29:06 05:01 11.96
87 5092 FALQUE ROMAIN JH 26 0:29:08 05:01 11.95
88 5239 HOUTART DELPHINE MARIE JF 4 0:29:09 05:02 11.94
89 5089 DE CLERCK YVES V2 8 0:29:09 05:02 11.94
90 5537 VANDERSMISSEN YVES V2 9 0:29:09 05:02 11.94
91 5582 FINFE SANDRINE A1 2 0:29:10 05:02 11.93
92 5232 TONNEAUX FRÉDÉRIC ANDRÉ V1 9 0:29:17 05:03 11.88
93 5231 DOCQUIR MURIELLE A2 1 0:29:25 05:04 11.83
94 5586 MAUFROID GASPARD JH 27 0:29:26 05:04 11.82
95 5236 HOUGARDY NOA JH 28 0:29:29 05:05 11.80
96 5088 COLLET VÉRONIQUE A2 2 0:29:30 05:05 11.80
97 5590 CLAEYS MICHEL V3 3 0:29:31 05:05 11.79
98 5516 BRUNO SAMUEL V1 10 0:29:34 05:06 11.77
99 5048 VAN NUFFEL YARON JH 29 0:29:40 05:07 11.73
100 5100 DUCHENNE CELINE SD 9 0:29:41 05:07 11.72
101 5154 MAJ JEAN-BAPTISTE V1 11 0:29:50 05:09 11.66
102 5544 GRYFFROY HUGUES V1 12 0:29:51 05:09 11.66
103 5234 MERTÈS NICOLAS XAVIER SH 31 0:29:55 05:09 11.63
104 5518 CORBIAUX BENJAMIN SH 32 0:29:59 05:10 11.61
105 5056 GILLAIN PHIL V2 10 0:30:11 05:12 11.53
106 5008 RENZI FRANCESCO SH 33 0:30:11 05:12 11.53
107 5228 GOMINS AMÉLIE VICHARA SD 10 0:30:18 05:13 11.49
108 5524 PARMENTIER TOM V1 13 0:30:23 05:14 11.45
109 5193 ANCIAUX CASSIAN JH 30 0:30:24 05:14 11.45
110 5171 ALEXIS CARL-ERIC V1 14 0:30:28 05:15 11.42
111 5593 COLLIN FREDERIC JH 31 0:30:35 05:16 11.38
112 5164 JOUON SACHA JH 32 0:30:40 05:17 11.35
113 5548 VAN WYNSBERGE GUY V2 11 0:30:40 05:17 11.35
114 5519 LEROY GUILLAUME JH 33 0:30:42 05:18 11.34
115 5211 CAUDRON ETIENNE JH 34 0:30:46 05:18 11.31
116 5029 MIMBE AUDREY JF 5 0:30:50 05:19 11.29
117 5036 BEAUDOT LALY JF 6 0:30:51 05:19 11.28
118 5025 GOSSUIN SYLVIE SD 11 0:30:52 05:19 11.27
119 5248 THIRION HUGO JH 35 0:30:54 05:20 11.26
120 5541 MERCIER NADÈGE JF 7 0:30:56 05:20 11.25
121 5208 CLÈVE MICHAËL MARIUS SH 34 0:31:00 05:21 11.23
122 5514 HAUTIER CATHERINE SD 12 0:31:01 05:21 11.22
123 5505 CUVELIER NATHALIE SD 13 0:31:04 05:21 11.20
124 5005 LIBERT GRÉGOIRE JH 36 0:31:14 05:23 11.14
125 5081 VAN CAUTER VÉRONIQUE A1 3 0:31:14 05:23 11.14
126 5494 DEPASSE ISABELLE A2 3 0:31:16 05:23 11.13
127 5200 BELLET VINCENT V1 15 0:31:18 05:24 11.12
128 5174 TAILLET PHILIPPE LUCIEN V2 12 0:31:23 05:25 11.09
129 5007 VERBEKE PIERRE SH 35 0:31:23 05:25 11.09
130 5178 MARTIN VALERIE A1 4 0:31:32 05:26 11.04
131 5031 DUJEU ANTOINE SH 36 0:31:49 05:29 10.94
132 5205 CHILIADE VICKY SD 14 0:31:56 05:30 10.90
133 5166 TIMMERMANS JULIE SD 15 0:32:01 05:31 10.87
134 5575 DUEDE NINA JF 8 0:32:02 05:31 10.86
135 5201 LEJEUNE THOMAS JH 37 0:32:04 05:32 10.85
136 5173 TAILLET CLAIRE CAROLINE SD 16 0:32:11 05:33 10.81
137 5550 MARCQ LAURENT SH 37 0:32:14 05:33 10.80
138 5114 LEBON LOAN JH 38 0:32:21 05:35 10.76
139 5087 BILMANS SOIZIC SD 17 0:32:27 05:36 10.72
140 5086 BÉCRET PHILIPPE SH 38 0:32:31 05:36 10.70
141 5585 FRIPPIAT GAUVAIN JH 39 0:32:31 05:36 10.70
142 5235 NAVEZ CAROLINE SD 18 0:32:36 05:37 10.67
143 5186 GYETVAI KIM SD 19 0:32:38 05:38 10.66
144 5588 ALEXIS MAÏLYS SD 20 0:32:41 05:38 10.65
145 5046 DENYS MICHEL V2 13 0:32:43 05:38 10.64
146 5564 DREMIER EMMANUEL V1 16 0:32:43 05:38 10.64
147 5035 PICCICUTO GEOFFREY SH 39 0:32:46 05:39 10.62
148 5252 GHENNE THIERRY DOMINIQUE SH 40 0:32:52 05:40 10.59
149 5040 DELOBBE ISABELLE SD 21 0:32:54 05:40 10.58
150 5030 RUYSSEN MARINE SD 22 0:32:57 05:41 10.56
151 5196 SPILLIAERT ISABELLE SD 23 0:33:00 05:41 10.55
152 5503 LIGOT VANESSA SD 24 0:33:01 05:42 10.54
153 5486 LURKIN MARIE SD 25 0:33:10 05:43 10.49
154 5592 RAYMACKERS OLIVIER V1 17 0:33:14 05:44 10.47
155 5159 BABE MICHEL JEAN V2 14 0:33:15 05:44 10.47
156 5584 FRIPPIAT JOSEPH JH 40 0:33:23 05:45 10.42
157 5094 ARNOULD DAVID V1 18 0:33:28 05:46 10.40
158 5169 PIRSON PAUL DOMINIQUE SH 41 0:33:30 05:47 10.39
159 5172 PIRSON ODILE JEANNE JF 9 0:33:31 05:47 10.38
160 5508 SMEDTS SARA SD 26 0:33:31 05:47 10.38
161 5554 MINETTE MARIE SD 27 0:33:33 05:47 10.37
162 5073 DUVAL MIGUEL V1 19 0:33:36 05:48 10.36
163 5082 SIMON FANNY SD 28 0:33:37 05:48 10.35
164 5488 PUISSANT GÉRALDINE A1 5 0:33:40 05:48 10.34
165 5078 SURIN ISABELLE A1 6 0:33:42 05:49 10.33
166 5079 MASSAUX CLÉMENT JH 41 0:33:45 05:49 10.31
167 5203 REMY ISABELLE YVETTE A1 7 0:33:46 05:49 10.31
168 5493 GILAIN ANNE-SOPHIE A1 8 0:33:46 05:49 10.31
169 5492 VIGNERON CÉCILE A1 9 0:33:46 05:49 10.31
170 5532 DHERBECOURT JULIE JF 10 0:33:49 05:50 10.29
171 5504 JOANNES NANCY A2 4 0:33:50 05:50 10.29
172 5533 DHERBECOURT YANNICK V1 20 0:33:50 05:50 10.29
173 5147 VAN BELLEGHEM ALAIN ARSÈNE V3 4 0:33:52 05:50 10.28
174 5571 REISEN SOPHIE SD 29 0:33:57 05:51 10.25
175 5055 GYSELINX SOPHIE SD 30 0:34:00 05:52 10.24
176 5233 DEREZE LAURA SD 31 0:34:04 05:52 10.22
177 5189 HANSEZ CECILE SD 32 0:34:04 05:52 10.22
178 5256 GILON MURIEL A1 10 0:34:06 05:53 10.21
179 5004 LIBERT CYRILLE JH 42 0:34:06 05:53 10.21
180 5507 ETIENNE SOPHIE SD 33 0:34:06 05:53 10.21
181 5146 MORTIER MAXIME JH 43 0:34:18 05:55 10.15
182 5502 SALME NATHALIE A1 11 0:34:19 05:55 10.14
183 5207 DENIS ANNE A2 5 0:34:21 05:55 10.13
184 5552 RASQUIN ROMAIN JH 44 0:34:26 05:56 10.11
185 5011 JELINEK OLIVIER V1 21 0:34:29 05:57 10.09
186 5037 MONIOTTE BENOIST V2 15 0:34:30 05:57 10.09
187 5093 LAMBILLON CHRISTIAN A3 1 0:34:33 05:57 10.07
188 5160 PINOT ROMAIN JH 45 0:34:34 05:58 10.07
189 5556 SALMON AURORE SD 34 0:34:35 05:58 10.06
190 5047 VAN CRIEKINGE JAN V2 16 0:34:37 05:58 10.05
191 5034 JADOUL CHARLOTTE SH 42 0:34:37 05:58 10.05
192 5511 DISPA ISABELLE SD 35 0:34:41 05:59 10.03
193 5246 CUVELIER THIBAUT JH 46 0:34:42 05:59 10.03
194 5113 GOMEZ HERNILDA A2 6 0:34:42 05:59 10.03
195 5188 HEBRANS MARC V2 17 0:34:45 05:59 10.01
196 5026 TIMMERMANS LAURE-ANNE SD 36 0:34:49 06:00 10.00
197 5183 HENRY JEAN-FRANCOIS V1 22 0:35:04 06:03 9.92
198 5155 CAUDRON ELISABETH CÉCILE JF 11 0:35:04 06:03 9.92
199 5181 DE KUYSSCHER LYDIA JOSIANE A1 12 0:35:07 06:03 9.91
200 5579 POMMIER MARINE SD 37 0:35:09 06:04 9.90
201 5013 LEBRECHT JULIE JF 12 0:35:09 06:04 9.90
202 5578 TRIOLET NICOLAS V1 23 0:35:09 06:04 9.90
203 5014 HARBECK VALÉRIE JF 13 0:35:09 06:04 9.90
204 5044 HUBERT JENNIFER SD 38 0:35:14 06:04 9.88
205 5175 TINA OGRADY SD 39 0:35:16 06:05 9.87
206 5066 RIPOCHE ÉMILIE SD 40 0:35:20 06:06 9.85
207 5574 WEIS LÉON V3 5 0:35:24 06:06 9.83
208 5542 BINI AURELIEN SD 41 0:35:26 06:07 9.82
209 5054 VANVOOREN VIOLAINE SD 42 0:35:28 06:07 9.81
210 5075 POTURAK KAPLAN JH 47 0:35:31 06:07 9.80
211 5074 SMETS TINA A1 13 0:35:31 06:07 9.80
212 5063 BOUJAT KARIM V1 24 0:35:31 06:07 9.80
213 5061 BOUJAT WISSAM JF 14 0:35:32 06:08 9.79
214 5560 KLEBOKOWSK MAGALI A1 14 0:35:37 06:08 9.77
215 5024 BODELET GAETANE SD 43 0:35:38 06:09 9.77
216 5209 SCHUYTEN CÉDRIC ALAIN SH 43 0:35:47 06:10 9.73
217 5220 CLAEYS GAËTAN SD 44 0:35:47 06:10 9.73
218 5219 PAQUOT SERGE JEAN V2 18 0:35:52 06:11 9.70
219 5559 DUMONT DEBORAH SD 45 0:35:59 06:12 9.67
220 5255 BAILLY LAURENT V1 25 0:36:00 06:12 9.67
221 5065 GILLET JEAN-NICOLAS SH 44 0:36:07 06:14 9.64
222 5071 HUBERT EMELINE SD 46 0:36:07 06:14 9.64
223 5521 BOONE WILLIAM JH 48 0:36:08 06:14 9.63
224 5167 DE BUYST JOHAN V3 6 0:36:09 06:14 9.63
225 5562 COLLIN RORO V3 7 0:36:09 06:14 9.63
226 5145 SCAILLET ELISE SD 47 0:36:12 06:14 9.61
227 5009 CAMUS OLIVIER SH 45 0:36:12 06:14 9.61
228 5549 HALLOY VERONIQUE A1 15 0:36:15 06:15 9.60
229 5517 CORBIAUX CHRISTOPHE SH 46 0:36:15 06:15 9.60
230 5060 HORION MARTIN JH 49 0:36:17 06:15 9.59
231 5190 SERVAIS ANNE-SOPHIE SD 48 0:36:25 06:17 9.56
232 5023 DE MAERE CONSTANCE JF 15 0:36:25 06:17 9.56
233 5498 GOFFINET ISABELLE A2 7 0:36:26 06:17 9.55
234 5485 PIERRET MARIE SD 49 0:36:33 06:18 9.52
235 5569 VANDEN BORRE GAELLE SH 47 0:36:33 06:18 9.52
236 5565 MONIER SYLVIE SD 50 0:36:33 06:18 9.52
237 5245 FERONT BERNARD MICHEL V1 26 0:36:34 06:18 9.52
238 5594 DEMAT STEFFI SD 51 0:36:34 06:18 9.52
239 5028 MYRTILLE DÉOM SH 48 0:36:42 06:20 9.48
240 5021 DEMAT BÉNÉDICTE A1 16 0:36:43 06:20 9.48
241 5027 LIBOIS ANTOINE SH 49 0:36:43 06:20 9.48
242 5038 GOBERT MAXIME SH 50 0:36:43 06:20 9.48
243 5039 ISTACE CHARLOTTE SD 52 0:36:44 06:20 9.47
244 5249 MRIDUL SETH SH 51 0:36:45 06:20 9.47
245 5067 DEBACKER NATHALIE A1 17 0:36:50 06:21 9.45
246 5191 FONTAINE SANDRINE A1 18 0:36:51 06:21 9.44
247 5144 XXX xxx   0:36:51 06:21 9.44
248 5597 VANOVERSCHELDE FLORIAN SH 52 0:36:52 06:21 9.44
249 5229 WALLON THIERRY LOUIS SH 53 0:36:52 06:21 9.44
250 5591 DELBART LISE JF 16 0:36:53 06:22 9.44
251 5558 ANTOINE ALAIN V2 19 0:37:03 06:23 9.39
252 5052 VAN WEYENBERGH LISA SD 53 0:37:04 06:23 9.39
253 5017 LEGRAND JEAN-FRANCOIS V1 27 0:37:15 06:25 9.34
254 5018 EUGENE MELANIE SD 54 0:37:17 06:26 9.33
255 5006 DELAHAUT MARGAUX JF 17 0:37:22 06:27 9.31
256 5572 REYSER VINCIANE A1 19 0:37:33 06:28 9.27
257 5512 GILLARD JEANNETTE A2 8 0:37:43 06:30 9.23
258 5567 SOHIER BAUDOUIN V2 20 0:37:47 06:31 9.21
259 5259 GEVERS STEFAAN REMIGIUS V2 21 0:38:03 06:34 9.15
260 5179 WAUTHIER MICHEL V3 8 0:38:05 06:34 9.14
261 5531 DHERBECOURT LINE JF 18 0:38:07 06:34 9.13
262 5020 HUBERT DIANE JF 19 0:38:09 06:35 9.12
263 5010 SICURELLA MARIA A1 20 0:38:11 06:35 9.11
264 5058 SICURELLA SYLVIA A1 21 0:38:13 06:35 9.11
265 5045 OSMAN NORSILAH A2 9 0:38:30 06:38 9.04
266 5210 GILBERT MÉLISSA BENOIT SD 55 0:38:34 06:39 9.02
267 5555 DELAHAYE JEANNE A3 2 0:38:34 06:39 9.02
268 5487 BLUA GRACIELA A1 22 0:38:36 06:39 9.02
269 5240 PARMENTIER LAURENT PHILIPPE V1 28 0:38:41 06:40 9.00
270 5241 PARMENTIER LUNA JF 20 0:38:41 06:40 9.00
271 5143 KLEIN DOROTE A2 10 0:38:43 06:41 8.99
272 5598 PIÉTERS NICOLE A3 3 0:38:46 06:41 8.98
273 5215 FONDAIRE CHRISTINE MADELEINE A1 23 0:38:53 06:42 8.95
274 5513 CUNEGATTI ELISE SD 56 0:38:59 06:43 8.93
275 5226 DELVAUX MAXIME ANTOINE SH 54 0:39:03 06:44 8.91
276 5227 SZABO CAROLINE SD 57 0:39:04 06:44 8.91
277 5090 NIESEN CORRY A1 24 0:39:05 06:44 8.90
278 5600 LEROY FABIENNE A1 25 0:39:05 06:44 8.90
279 5091 SCHREURS BART V1 29 0:39:06 06:44 8.90
280 5490 HANOUL LORINE SD 58 0:39:15 06:46 8.87
281 5197 THOMAS CELINE A1 26 0:39:23 06:47 8.84
282 5214 WARIN MÉLANIE DENISE SD 59 0:39:26 06:48 8.83
283 5529 FRANÇOIS FABIENNE A1 27 0:39:26 06:48 8.83
284 5022 DE MAERE ELEONORE JF 21 0:39:29 06:48 8.81
285 5587 FINK LUISA SD 60 0:39:32 06:49 8.80
286 5526 HEEREN AURÉLIE SD 61 0:39:48 06:52 8.74
287 5002 LIBERT AURORE JF 22 0:40:01 06:54 8.70
288 5019 SARITAS ELIF SD 62 0:40:05 06:55 8.68
289 5545 CHEVRY ETIENNE V1 30 0:40:06 06:55 8.68
290 5185 GYETVAI ESTELLE xxx   0:40:27 06:58 8.60
291 5561 DUBOIS HENRIETTE A1 28 0:40:31 06:59 8.59
292 5049 LOUIS TAMARA SD 63 0:40:35 07:00 8.57
293 5547 DEFOING MARIE-CHRISTINE A2 11 0:40:44 07:01 8.54
294 5062 BOUJAT SALIMA JF 23 0:41:02 07:04 8.48
295 5539 LEFEBVRE MARINE SD 64 0:41:05 07:05 8.47
296 5570 REISEN ELISE SD 65 0:41:16 07:07 8.43
297 5077 POTURAK ASLAN JH 50 0:41:17 07:07 8.43
298 5085 COLLIGNON CHRISTINE A1 29 0:41:19 07:07 8.42
299 5076 POTURAK EMIR SH 55 0:41:26 07:09 8.40
300 5157 VAN VYVE PHILIPPE JOSEPH V2 22 0:41:26 07:09 8.40
301 5195 DE COMMER NICOLAS SH 56 0:41:29 07:09 8.39
302 5194 BAUWELINCKX MARIE SD 66 0:41:31 07:09 8.38
303 5168 ROEMEN SYLVIE A2 12 0:41:33 07:10 8.38
304 5496 DESSY ROBIN SH 57 0:41:34 07:10 8.37
305 5484 GENGLER SANDRINE A1 30 0:41:37 07:11 8.36
306 5489 XXX xxx   0:41:47 07:12 8.33
307 5153 LABIOUSE LUCAS JH 51 0:41:48 07:12 8.33
308 5499 SCHIETS STEPHANE V2 23 0:41:59 07:14 8.29
309 5253 GILLES FRANCOISE xxx   0:42:19 07:18 8.22
310 5217 XXX xxx   0:42:22 07:18 8.21
311 5068 DETRY MARIE CHRISTINE A2 13 0:42:25 07:19 8.20
312 5003 ARSON NATHALIE A1 31 0:43:28 07:30 8.01
313 5581 GOUJON GÉRARD V3 9 0:43:31 07:30 8.00
314 5250 CHANTRAINE AURELIE JF 24 0:43:59 07:35 7.91
315 5257 DIZIER FLORIAN THIERRY JH 52 0:44:04 07:36 7.90
316 5150 FOSSEPREZ BERENICE SD 67 0:44:18 07:38 7.86
317 5580 HALLOY GAËTANE SD 68 0:44:55 07:45 7.75
318 5530 VERSTRAETEN WALTER V3 10 0:45:01 07:46 7.73
319 5563 COLLIN ROSITA A3 4 0:45:27 07:50 7.66
320 5553 DUTERME CHRISTOPHE SH 58 0:45:46 07:53 7.60
321 5497 RIMBAUD KATOU SD 69 0:47:09 08:08 7.38
322 5251 GILBERT GUY PAUL V3 11 0:47:12 08:08 7.37
323 5522 DE MEULDER MARIE SD 70 0:47:14 08:09 7.37
324 5568 GLIBERT ANNE A1 32 0:47:48 08:14 7.28
325 5470 VERI ALESSIA SD 71 0:48:49 08:25 7.13
326 5534 STERCKX VALÉRIE A1 33 0:56:05 09:40 6.21
327 5096 APPELDOORN JEAN PIERRE V3 12 0:58:18 10:03 5.97